Dewpoint
-4 -4 -4 -8 -14 -17 -18 -17 -13 -9 -6 -6 -6 -4 -5 -20 -22 -24 -26 -24 -18 -8 -1 -1 -1 5 13 13 15 16 18 18 17 17 16 15 14 13 13 13 13 13 14 14 13
-4 -4 -4 -7 -13 -17 -18 -19 -16 -12 -10 -8 -8 -7 -4 -13 -21 -23 -27 -26 -19 -7 -4 -2 1 12 12 13 14 16 17 17 16 16 15 14 13 14 13 14 14 14 14 14 12
-4 -4 -4 -5 -11 -16 -18 -18 -18 -15 -13 -12 -10 -8 -5 -11 -22 -7 -9 -26 -19 -2 -4 -3 0 11 9 8 13 16 17 15 16 14 15 13 13 13 14 15 13 14 14 12 11
-3 -4 -4 -5 -11 -14 -15 -16 -17 -17 -15 -13 -12 -9 -5 -14 -11 -1 -4 -25 -11 -3 -1 1 -1 7 11 9 13 16 15 16 16 15 14 14 13 13 13 14 11 11 12 13 14
-6 -7 -7 -8 -12 -14 -15 -14 -15 -16 -16 -14 -12 -10 -7 -11 -20 -0 -6 -18 -4 -2 -0 1 2 8 12 11 13 16 15 16 16 15 15 15 13 13 14 13 12 12 13 13 14
-6 -9 -12 -12 -13 -14 -15 -17 -17 -16 -15 -14 -12 -10 -8 -11 -19 -2 -5 -15 -9 -3 -4 -1 2 10 9 9 15 14 15 17 17 15 15 15 15 13 15 14 14 13 14 14 13
-3 -7 -12 -16 -18 -20 -22 -21 -17 -14 -10 -10 -11 -10 -8 -6 -6 0 -4 -14 -11 -6 -6 -4 7 6 9 8 7 15 16 16 16 16 16 16 16 15 15 15 15 14 14 14 14
-2 -3 -10 -11 -12 -19 -20 -16 -6 -7 -8 -9 -11 -11 -8 -8 -5 1 -4 -9 -11 -8 -5 -3 7 8 8 8 1 15 15 17 16 16 16 16 18 16 15 15 15 15 15 15 15
-2 -2 -6 -9 -7 -12 -13 -5 -2 -2 -10 -14 -13 -12 -8 -8 -5 1 -0 -2 -5 -5 -6 -1 -6 5 4 1 2 8 17 16 17 15 15 15 17 15 15 14 15 15 15 15 15
-2 -2 -3 -7 -8 -4 -4 -4 -0 3 -2 -6 -7 2 -1 -1 -4 -1 -1 -2 -6 -7 -7 -2 1 2 -1 0 6 7 13 15 16 16 15 15 15 15 15 14 14 14 14 14 14
-5 -3 -1 -8 -8 -5 -5 -4 0 -0 0 -1 -3 -4 -5 -2 -1 -4 -6 -3 -9 -5 -1 -1 3 4 2 0 1 3 6 14 16 16 16 16 16 16 15 15 15 14 13 13 13
-8 -8 -2 -6 -7 -5 -3 -2 0 1 0 -2 -2 -2 -4 -5 -3 -4 -5 -2 -4 -2 1 1 4 2 -1 -1 0 2 13 17 16 15 15 16 16 15 15 14 14 15 13 13 13
-7 -9 -7 -4 -6 -5 -4 -0 -1 0 -1 -4 -5 -4 -6 -4 -3 -3 -3 -3 -4 1 2 4 2 0 -2 -0 1 2 4 16 16 15 14 15 15 15 14 14 14 14 14 13 12
-6 -9 -12 -5 -5 -5 -3 -1 -0 -0 -3 -4 -5 -6 -4 -4 -4 -3 -4 -3 -2 -1 2 2 1 -0 -0 0 0 2 4 11 15 15 14 14 15 14 14 16 15 14 13 13 13
-6 -10 -14 -8 -6 -4 -1 -1 -1 -3 1 -0 -3 -7 -5 -5 -4 -3 -4 -3 -0 -1 1 3 0 0 1 -0 -1 3 2 10 14 14 14 14 15 14 14 15 16 15 14 13 13
-9 -12 -15 -11 -5 -2 -2 -1 -3 -3 5 2 -1 -1 -6 -7 -7 -2 -3 -2 -1 -1 -2 1 -3 -2 -1 -1 -1 -1 1 10 12 12 14 13 14 14 16 14 15 15 15 14 13
-9 -11 -15 -13 -3 -3 -2 -1 -0 3 0 2 1 -1 -2 1 -6 -6 -1 -0 1 2 1 -1 -2 -4 -4 -3 -5 -3 1 8 14 15 14 12 15 13 14 14 14 15 13 15 14
-8 -12 -15 -12 -5 -3 -1 -0 5 3 2 1 1 -1 1 1 2 1 -4 -4 -2 -1 1 2 2 -2 -4 -3 -2 -4 1 6 13 14 13 13 15 12 14 14 14 15 15 15 14
-8 -11 -10 -5 -3 -2 1 3 4 3 2 3 -0 1 2 2 2 3 2 -0 1 -2 1 2 2 -2 -4 -5 -5 -3 -2 -2 5 6 12 13 12 13 15 15 15 15 15 15 13
-6 -5 -5 -4 -1 1 -1 2 2 3 2 1 2 2 3 3 2 4 4 3 1 0 -2 -0 2 -1 -1 -3 -5 -4 -3 1 3 9 11 10 15 12 17 16 15 15 15 15 13
-5 -2 -2 1 1 0 2 2 2 2 2 -0 1 2 4 4 5 5 5 3 1 1 -0 0 1 1 0 -1 -1 0 0 1 2 6 9 11 12 14 15 16 16 15 15 14 14
-2 0 0 -1 1 3 2 3 3 2 2 0 1 2 3 5 5 5 5 4 2 1 0 0 2 4 2 -0 1 0 -1 0 4 4 8 8 10 13 14 15 14 15 15 15 15
-0 1 0 1 1 1 1 4 3 2 1 -3 -2 0 2 4 3 4 4 3 3 2 -0 0 3 4 2 2 1 2 2 0 1 7 12 9 10 14 14 14 14 14 15 15 15
0 -3 -2 1 0 -1 2 2 1 -0 -3 -2 -1 -2 1 2 3 2 1 2 1 1 2 2 3 4 4 3 2 4 3 2 0 4 7 9 13 15 14 14 14 14 14 15 15
-1 -0 0 -2 -4 0 -1 -3 -4 -5 -7 -1 0 1 1 0 1 2 -0 -1 2 5 0 0 3 4 3 3 3 3 1 0 -1 -1 5 7 13 13 13 13 14 14 14 14 14
2 2 4 0 -5 -5 -4 -3 -5 -4 -4 -3 1 1 -0 1 1 1 -0 -1 -0 -0 1 -0 5 4 5 4 4 1 1 4 3 11 13 12 14 12 12 14 14 13 13 13 14
2 4 2 0 -5 -3 -3 -3 -3 -4 -4 -3 -1 2 -0 -1 0 -2 -2 -2 -1 -0 1 1 5 6 6 5 1 0 2 3 4 11 12 13 12 13 13 13 13 13 13 13 13
Wind_Speed
11 11 11 10 11 10 9 9 9 8 9 9 9 8 8 9 10 12 15 8 14 21 20 16 14 13 12 9 6 4 1 2 4 7 4 4 6 8 8 20 6 3 23 29 29
13 12 12 10 10 10 9 9 9 9 7 8 9 9 9 9 12 15 8 11 17 22 24 21 19 16 7 5 4 4 1 2 4 2 3 9 17 11 9 8 14 28 24 29 28
12 12 13 12 11 9 8 8 8 9 9 7 7 8 9 9 9 1 2 13 19 19 22 20 16 12 3 3 5 3 1 6 8 12 2 13 14 9 19 5 23 34 35 30 27
12 12 13 13 12 11 9 8 7 7 8 8 6 6 6 6 2 2 1 16 19 22 22 16 19 7 2 2 2 2 4 8 17 19 7 13 15 14 7 7 37 38 35 32 27
15 14 12 12 11 10 10 9 7 7 7 6 6 6 4 5 4 2 1 17 23 26 22 17 21 7 4 3 4 4 5 9 10 17 13 11 12 12 5 18 35 35 33 31 26
17 16 14 12 10 10 10 8 8 6 6 6 5 5 5 3 3 3 3 19 24 23 21 19 14 11 3 4 4 2 3 10 3 8 20 12 8 10 9 31 30 34 33 31 28
18 18 17 12 10 9 8 6 6 6 5 5 5 5 8 7 3 7 7 12 19 20 19 16 7 8 2 3 3 10 8 10 12 10 5 23 10 9 13 29 30 33 32 31 29
18 18 17 14 11 8 5 3 5 6 5 2 3 4 6 5 8 10 12 13 16 16 7 17 11 4 3 8 4 3 2 4 8 10 12 1 6 11 19 24 26 28 28 30 28
17 18 17 14 11 8 6 4 3 4 4 1 1 3 4 3 9 13 9 7 14 12 12 10 12 2 2 2 4 3 3 1 9 16 8 2 8 13 25 27 24 24 24 25 27
17 17 16 13 10 8 9 7 7 5 1 1 3 2 1 4 4 14 10 4 9 12 12 7 5 2 3 4 3 1 2 1 5 7 6 4 4 12 21 22 22 22 24 24 27
17 17 15 12 9 9 11 4 6 2 12 11 9 11 12 1 2 9 17 12 13 11 4 5 4 5 7 5 4 2 2 8 4 5 5 6 8 8 14 16 19 18 24 26 29
16 16 14 11 8 8 8 4 5 9 8 12 15 18 15 12 3 7 16 9 8 4 4 5 5 7 4 5 5 2 7 6 8 6 5 2 4 1 11 13 26 18 20 29 27
17 17 14 12 10 5 5 7 13 15 2 5 3 4 1 8 5 11 21 9 5 5 4 7 3 8 3 4 5 1 3 6 6 4 3 8 3 5 5 14 16 25 16 21 35
18 17 13 11 7 7 2 12 17 5 4 5 3 2 7 3 1 10 19 13 3 7 7 3 3 7 4 3 4 3 5 6 14 4 3 1 2 5 9 9 15 22 33 17 29
20 19 13 8 7 5 5 13 10 1 3 9 4 4 5 4 3 6 22 14 6 6 6 6 6 4 3 4 5 6 3 7 8 4 3 2 2 4 7 10 14 22 34 36 23
23 21 12 5 4 3 7 12 2 5 3 6 4 6 3 5 3 6 13 7 3 4 2 6 2 5 9 6 7 5 2 7 4 3 2 6 5 4 5 10 14 24 29 36 25
24 17 8 4 4 2 9 5 5 4 4 7 4 5 4 6 5 6 5 2 4 4 1 3 2 2 4 3 2 3 3 2 2 1 5 2 4 7 4 5 21 29 45 40 26
18 9 0 4 4 3 7 4 5 2 2 4 4 2 5 7 4 7 3 3 2 5 3 5 4 6 3 7 7 7 8 5 5 5 3 4 5 4 4 8 19 24 25 27 27
11 5 7 6 3 2 1 4 4 2 3 6 4 7 5 4 3 3 3 2 1 3 6 4 4 3 4 4 9 4 4 7 6 3 4 3 5 2 4 6 18 26 32 31 31
7 7 7 6 2 2 5 2 1 2 2 2 3 2 5 5 3 4 1 2 3 3 2 5 1 2 4 3 2 7 6 4 3 5 3 3 5 4 2 5 8 18 25 28 32
4 4 4 6 1 4 3 4 3 4 4 2 1 2 1 3 2 1 1 1 2 2 4 4 3 6 3 1 6 2 1 5 5 4 6 3 6 2 5 7 8 12 21 33 34
3 3 1 6 4 3 1 3 2 3 1 1 3 2 1 2 2 1 2 3 3 2 3 1 5 3 9 1 3 1 2 5 5 4 2 4 5 1 6 12 16 15 17 23 27
3 4 8 2 2 3 3 2 1 3 3 2 1 2 2 2 2 1 2 4 7 2 6 6 2 2 7 5 5 5 3 2 3 2 6 6 5 4 8 11 15 18 19 19 21
2 3 2 2 2 4 1 2 2 3 3 3 2 2 2 2 2 3 2 3 2 2 1 4 3 5 6 3 2 4 4 3 4 3 5 5 6 9 11 11 15 18 18 17 17
4 1 2 1 3 2 2 2 2 4 5 11 3 3 2 1 1 2 2 5 3 3 2 3 4 5 4 3 2 3 5 7 5 5 6 7 9 12 15 11 16 20 19 18 15
3 2 3 3 2 2 5 4 2 2 5 5 3 5 3 4 4 2 2 1 2 3 3 4 2 0 3 2 3 3 9 11 2 3 2 6 1 5 16 17 16 15 16 16 17
5 4 2 4 2 3 2 1 1 0 2 2 3 2 3 2 5 6 7 6 3 3 1 3 4 2 3 4 2 3 8 4 6 4 4 5 6 14 15 15 16 16 13 14 17
Wind_Direction
334 330 325 321 319 316 308 292 289 291 293 293 288 283 285 287 280 266 251 226 198 180 174 182 170 160 168 193 203 190 246 122 132 127 167 171 115 136 117 130 86 177 150 156 152
338 334 330 324 320 317 311 300 288 288 287 287 290 287 282 288 291 276 243 205 188 183 189 187 170 155 173 201 205 215 24 57 99 213 146 134 130 130 132 106 108 115 143 151 151
346 339 335 329 324 318 312 306 295 288 292 286 282 286 289 297 310 105 158 192 185 185 187 183 172 158 165 182 202 162 199 110 136 192 171 137 133 133 136 115 150 141 152 153 155
355 346 336 332 328 324 318 308 296 287 293 295 278 273 281 290 172 138 112 189 177 171 174 166 163 139 94 259 210 179 190 154 173 211 209 152 137 141 152 156 157 149 153 156 163
0 354 345 334 329 326 321 311 297 288 284 285 284 269 248 256 250 195 252 183 173 177 176 164 161 134 176 218 245 210 192 147 142 191 186 141 150 141 129 156 162 158 161 162 164
5 2 356 346 337 332 326 318 308 298 288 285 270 256 235 237 209 164 122 179 182 178 177 178 176 174 176 212 206 253 96 125 206 195 162 175 107 161 141 159 161 163 168 170 168
6 5 1 357 347 338 339 339 328 316 308 289 258 238 251 236 176 154 143 179 184 191 191 172 169 197 271 296 331 158 111 111 137 150 118 125 150 203 160 168 166 173 174 178 180
2 6 5 6 7 5 10 20 7 354 340 308 255 238 248 208 198 167 161 184 192 193 187 180 156 191 278 313 6 126 98 121 164 172 159 72 115 160 189 181 173 178 179 182 190
354 0 3 5 10 20 22 13 0 4 23 60 148 252 267 228 199 173 165 187 188 187 169 151 203 259 331 39 19 12 220 186 152 187 144 135 139 183 193 183 175 181 182 185 191
351 354 357 357 359 5 360 343 337 320 1 17 264 314 88 14 134 200 185 137 160 163 155 142 150 98 42 76 196 123 61 37 136 188 106 111 67 149 173 182 175 186 190 187 197
350 349 351 350 347 349 356 8 357 346 301 260 272 276 301 79 175 196 198 149 141 150 136 175 96 186 185 190 156 138 87 97 47 45 70 49 60 162 171 166 186 207 191 194 201
349 347 346 341 335 341 20 60 54 334 302 301 262 261 259 266 278 157 176 151 142 147 127 61 199 208 191 179 145 138 115 96 87 127 96 42 27 133 194 199 199 209 204 199 199
351 345 339 332 327 338 29 23 348 335 273 303 297 246 197 186 197 169 173 145 131 122 168 140 240 166 175 158 135 125 153 171 133 131 70 140 188 212 193 225 227 208 219 200 200
344 337 329 317 316 335 26 347 339 325 55 310 355 78 162 158 223 184 183 165 146 156 142 172 171 139 158 155 132 160 213 135 134 152 157 202 235 230 194 203 205 211 228 220 206
333 326 318 299 291 313 316 345 340 25 56 328 13 112 153 182 128 181 182 185 151 146 109 230 152 147 144 190 156 207 226 139 165 90 100 204 128 246 163 203 200 207 220 224 219
328 323 314 287 264 245 322 339 315 35 19 349 26 349 76 19 13 122 173 184 162 100 65 199 179 145 185 196 174 137 149 58 73 77 334 204 165 249 198 212 189 198 216 215 218
330 323 298 247 160 301 321 338 42 83 324 338 341 13 70 355 15 25 133 120 138 97 92 358 257 236 157 128 58 130 156 68 68 66 227 238 130 248 198 199 187 188 203 208 213
336 334 51 169 197 301 338 50 77 305 339 333 2 337 75 0 21 356 62 121 87 94 109 154 316 178 179 171 177 180 161 148 169 188 230 92 224 265 293 268 189 187 202 204 219
355 59 99 117 162 327 354 56 193 212 316 347 340 49 8 6 48 54 42 136 189 160 156 141 265 276 192 152 139 193 152 197 114 27 99 220 284 290 36 48 147 156 165 179 194
32 89 89 110 104 341 71 200 212 226 354 5 81 44 11 337 42 43 10 213 157 214 157 187 338 267 281 128 157 159 167 95 12 138 187 282 286 237 148 120 115 155 160 166 183
57 102 99 136 330 29 113 222 259 267 236 90 81 78 14 328 40 331 230 352 260 108 136 116 116 286 342 126 177 77 207 59 119 136 159 174 257 158 177 154 137 137 152 170 182
66 60 173 170 27 48 113 200 325 306 131 186 104 86 181 183 330 323 245 256 65 320 77 141 140 205 227 150 316 168 261 165 135 221 207 156 256 165 168 144 143 139 153 167 180
70 75 139 78 78 335 295 300 242 337 19 119 71 180 182 189 360 224 276 261 267 274 173 179 12 40 347 4 10 57 335 108 132 78 193 146 250 155 148 152 158 146 157 174 178
74 58 89 213 95 137 334 12 35 68 62 340 61 96 107 100 256 312 297 299 313 266 331 45 116 143 194 193 187 311 307 290 145 136 176 214 166 191 178 166 152 144 155 155 165
56 91 103 290 3 67 44 349 43 6 10 30 49 44 271 46 61 355 325 328 7 111 4 96 137 148 211 243 243 235 315 329 219 207 168 208 190 196 183 165 148 146 148 153 157
79 102 91 60 46 51 2 2 58 351 34 344 40 343 16 164 159 227 15 318 5 35 50 358 115 106 203 248 253 191 2 340 220 150 86 121 99 155 158 134 137 154 152 152 154
54 52 80 5 61 84 264 236 17 44 20 11 333 330 326 319 274 299 273 280 278 345 83 79 129 91 241 344 300 25 357 305 295 249 150 173 190 149 143 144 145 146 143 146 154
Height
1506 1505 1504 1503 1501 1500 1500 1499 1497 1497 1497 1497 1497 1496 1496 1496 1496 1495 1494 1497 1498 1501 1504 1506 1509 1512 1515 1517 1518 1517 1520 1520 1521 1520 1520 1521 1524 1529 1531 1534 1536 1538 1541 1545 1549
1506 1504 1502 1501 1500 1498 1498 1497 1496 1495 1495 1495 1495 1495 1494 1494 1493 1491 1493 1493 1496 1499 1502 1505 1507 1512 1515 1516 1517 1517 1520 1516 1516 1517 1518 1520 1523 1528 1532 1537 1540 1539 1546 1550 1554
1505 1503 1501 1500 1499 1497 1495 1494 1494 1494 1493 1493 1492 1493 1493 1492 1491 1489 1489 1491 1494 1498 1502 1506 1509 1513 1514 1515 1515 1516 1519 1517 1519 1516 1520 1521 1526 1528 1533 1539 1538 1537 1545 1551 1556
1504 1502 1500 1498 1497 1496 1494 1492 1491 1491 1492 1492 1491 1490 1491 1492 1493 1488 1488 1490 1494 1498 1502 1505 1510 1512 1515 1515 1515 1517 1515 1518 1521 1521 1523 1524 1526 1530 1533 1536 1539 1541 1546 1551 1557
1503 1501 1498 1496 1495 1494 1493 1492 1490 1489 1489 1489 1490 1490 1489 1491 1489 1488 1488 1489 1494 1497 1501 1504 1508 1512 1516 1515 1515 1514 1513 1514 1518 1520 1524 1525 1528 1532 1536 1537 1543 1545 1549 1553 1558
1503 1500 1498 1495 1493 1492 1491 1490 1489 1488 1487 1488 1488 1488 1490 1490 1487 1488 1488 1489 1493 1497 1501 1504 1507 1510 1513 1513 1513 1508 1510 1512 1513 1520 1524 1528 1531 1533 1540 1540 1544 1546 1550 1554 1558
1503 1500 1497 1494 1493 1490 1489 1489 1488 1487 1487 1486 1487 1487 1488 1486 1486 1488 1489 1492 1494 1498 1501 1505 1507 1511 1510 1510 1510 1509 1514 1516 1520 1522 1526 1529 1540 1537 1542 1545 1545 1547 1551 1556 1560
1502 1500 1497 1494 1492 1489 1488 1487 1487 1487 1486 1486 1486 1487 1484 1484 1485 1488 1490 1493 1496 1499 1502 1506 1508 1510 1510 1508 1507 1510 1511 1522 1524 1520 1527 1526 1538 1540 1538 1547 1547 1548 1552 1557 1561
1501 1499 1497 1495 1492 1490 1489 1488 1486 1486 1485 1485 1486 1487 1483 1483 1486 1488 1491 1493 1496 1499 1503 1505 1509 1510 1510 1512 1518 1514 1524 1519 1522 1520 1525 1528 1533 1538 1540 1544 1548 1550 1553 1557 1562
1501 1499 1497 1495 1493 1492 1490 1489 1487 1487 1486 1486 1485 1489 1484 1485 1485 1488 1491 1494 1496 1500 1503 1505 1508 1512 1514 1520 1534 1522 1519 1518 1520 1522 1524 1530 1537 1538 1541 1543 1546 1551 1553 1557 1560
1500 1498 1496 1494 1493 1493 1491 1490 1492 1488 1485 1484 1482 1482 1482 1483 1484 1486 1490 1493 1496 1500 1504 1505 1512 1519 1513 1513 1513 1514 1515 1519 1526 1525 1529 1533 1536 1538 1540 1541 1546 1550 1554 1555 1558
1500 1497 1495 1493 1492 1490 1491 1491 1491 1493 1483 1478 1479 1478 1480 1482 1485 1485 1489 1494 1496 1503 1503 1511 1516 1509 1508 1510 1511 1514 1521 1529 1529 1528 1532 1538 1539 1537 1538 1540 1541 1547 1551 1553 1557
1500 1497 1494 1493 1491 1491 1490 1491 1490 1486 1485 1477 1477 1476 1478 1481 1482 1484 1488 1492 1495 1501 1503 1510 1506 1505 1508 1512 1514 1517 1518 1526 1525 1531 1532 1536 1543 1540 1536 1538 1542 1546 1550 1551 1553
1498 1495 1493 1491 1493 1490 1490 1490 1487 1485 1493 1481 1477 1477 1479 1480 1481 1483 1486 1491 1493 1501 1503 1504 1503 1505 1510 1512 1513 1522 1513 1511 1525 1534 1543 1536 1552 1535 1531 1532 1537 1540 1543 1547 1551
1496 1493 1490 1490 1489 1489 1491 1489 1487 1487 1509 1480 1479 1479 1479 1481 1481 1482 1484 1489 1493 1495 1500 1508 1503 1506 1510 1509 1509 1520 1510 1513 1525 1535 1538 1542 1545 1527 1526 1531 1530 1533 1536 1543 1549
1493 1490 1488 1487 1488 1489 1489 1488 1488 1501 1505 1486 1481 1481 1480 1480 1480 1482 1486 1489 1490 1494 1496 1500 1498 1500 1503 1503 1505 1507 1511 1521 1529 1540 1553 1533 1537 1530 1527 1514 1521 1528 1530 1537 1545
1490 1487 1485 1485 1488 1489 1488 1488 1502 1511 1491 1493 1489 1487 1487 1489 1483 1484 1488 1491 1498 1510 1508 1502 1501 1498 1498 1505 1505 1507 1515 1546 1552 1555 1556 1533 1537 1520 1512 1508 1511 1514 1517 1528 1540
1486 1483 1484 1486 1487 1488 1489 1491 1508 1498 1497 1491 1490 1489 1493 1493 1493 1490 1490 1498 1494 1499 1515 1517 1522 1500 1496 1501 1510 1514 1519 1541 1554 1562 1545 1535 1540 1516 1508 1507 1508 1515 1522 1531 1538
1485 1484 1485 1487 1489 1489 1490 1509 1507 1501 1496 1496 1494 1498 1500 1496 1494 1494 1497 1500 1498 1496 1510 1518 1512 1493 1492 1493 1498 1513 1522 1510 1534 1535 1542 1540 1524 1510 1507 1506 1507 1513 1520 1525 1533
1485 1485 1487 1489 1490 1490 1493 1505 1500 1497 1497 1496 1502 1501 1504 1501 1498 1499 1499 1495 1495 1494 1494 1506 1515 1497 1492 1491 1494 1499 1501 1523 1534 1548 1541 1540 1533 1520 1513 1512 1511 1515 1517 1523 1529
1487 1487 1490 1490 1491 1491 1504 1505 1499 1495 1496 1498 1500 1501 1503 1505 1503 1503 1500 1495 1494 1494 1494 1500 1510 1507 1496 1498 1502 1505 1508 1514 1519 1528 1542 1547 1535 1512 1510 1510 1512 1516 1517 1520 1527
1487 1490 1491 1492 1494 1500 1504 1501 1498 1496 1495 1496 1497 1500 1501 1503 1503 1503 1502 1498 1494 1496 1498 1500 1513 1517 1506 1495 1495 1495 1500 1504 1524 1525 1530 1527 1526 1510 1509 1510 1512 1517 1520 1522 1527
1488 1491 1493 1495 1503 1505 1500 1499 1498 1496 1496 1495 1497 1498 1500 1502 1506 1503 1500 1494 1493 1495 1496 1496 1517 1524 1512 1504 1499 1505 1502 1503 1511 1514 1520 1523 1522 1508 1511 1513 1514 1516 1520 1523 1527
1491 1496 1496 1496 1498 1499 1501 1500 1498 1496 1497 1496 1496 1496 1499 1502 1503 1503 1501 1494 1494 1494 1493 1494 1514 1517 1526 1513 1512 1511 1506 1502 1507 1518 1516 1512 1513 1510 1510 1512 1514 1516 1520 1523 1527
1491 1496 1498 1501 1500 1499 1500 1500 1499 1502 1498 1497 1498 1499 1500 1502 1502 1503 1501 1498 1494 1494 1495 1497 1509 1509 1510 1510 1508 1507 1506 1504 1503 1499 1503 1500 1505 1500 1504 1509 1513 1515 1519 1523 1527
1494 1496 1497 1500 1500 1501 1503 1504 1502 1502 1502 1502 1502 1499 1499 1501 1500 1504 1501 1500 1497 1495 1498 1499 1511 1506 1508 1506 1507 1504 1504 1500 1494 1495 1497 1499 1500 1496 1504 1508 1513 1517 1519 1523 1526
1496 1497 1498 1502 1502 1504 1507 1504 1503 1503 1503 1502 1503 1502 1501 1499 1499 1497 1497 1498 1499 1500 1500 1503 1510 1514 1515 1511 1504 1512 1508 1505 1504 1493 1495 1501 1492 1496 1503 1508 1513 1516 1520 1523 1526